Temperature
9 10 10 12 13 14 14 14 14 15 16 15 14 15 16 17 17 17 17 18 18 18 18 18 17 17 17 17 16 17 17 17 16 16 16 16 16 16 16 16 16 16 16 15
9 10 12 14 14 15 15 15 15 15 14 15 14 15 16 16 17 17 17 17 17 17 17 16 16 15 15 15 15 15 16 16 16 16 15 15 15 15 15 15 15 15 15 15
10 11 13 14 14 14 14 15 15 14 13 14 14 13 14 16 16 16 15 15 15 15 15 14 14 14 13 14 14 14 14 15 15 15 15 15 15 15 15 15 15 15 15 14
10 12 13 13 13 14 14 15 15 14 12 12 12 12 14 14 14 14 14 14 14 14 14 13 13 12 12 12 13 13 14 14 14 14 15 15 15 14 14 14 14 14 14 14
9 11 12 12 13 14 14 14 14 13 12 13 12 12 14 13 13 13 13 14 13 13 13 12 12 11 11 12 12 12 13 13 13 13 14 14 14 14 14 13 13 13 13 13
8 9 10 12 13 13 13 13 12 12 12 10 12 12 13 13 13 12 13 13 13 12 12 12 11 11 11 11 12 12 12 12 12 12 12 12 12 13 13 13 13 13 13 13
7 7 8 10 10 11 12 10 9 9 9 10 13 13 13 14 13 12 12 13 13 12 12 12 11 11 10 11 11 11 11 11 11 11 11 11 11 11 12 12 12 12 12 12
7 7 7 8 9 10 11 11 10 10 9 10 12 11 13 13 13 14 13 13 12 12 12 11 10 10 10 10 10 10 10 10 10 10 11 11 11 10 10 11 11 11 11 12
8 7 7 8 9 10 10 10 11 10 12 11 10 12 11 12 12 12 13 13 13 12 11 11 10 9 9 9 9 9 9 9 9 9 9 9 9 10 10 10 10 10 10 11
9 7 7 7 8 8 9 10 9 8 10 11 12 12 10 10 11 12 12 13 12 12 11 10 9 8 8 7 7 7 7 8 8 8 8 8 8 8 9 9 9 9 9 10
10 8 7 7 8 8 8 9 9 10 10 10 11 12 13 11 11 11 12 13 12 11 10 9 8 7 7 6 6 6 7 7 7 7 7 7 7 7 7 7 8 8 8 8
11 8 7 8 9 9 10 10 10 9 9 10 9 10 13 12 12 12 12 12 11 10 9 8 7 6 6 5 5 5 5 6 6 6 6 6 7 7 7 7 7 7 7 7
11 8 6 7 7 8 8 10 10 10 9 9 9 10 12 11 12 12 12 12 11 9 8 7 6 5 4 4 3 4 4 5 5 5 5 5 6 6 6 6 6 6 7 7
11 9 8 8 8 7 8 9 9 8 7 9 10 10 11 11 12 12 12 11 10 9 7 6 5 4 3 3 2 3 3 3 3 4 4 4 5 5 5 5 5 5 6 6
10 8 7 8 9 9 9 9 9 7 8 9 11 12 11 12 12 12 12 11 9 8 7 5 4 3 2 2 1 1 2 2 2 3 3 3 4 4 4 4 4 5 5 5
10 8 7 6 8 8 8 9 9 8 9 9 10 11 13 13 12 12 11 10 9 8 6 5 3 2 2 1 1 1 1 1 2 2 3 3 3 3 3 3 4 4 4 4
9 7 6 7 8 8 6 8 9 9 9 9 9 10 12 12 12 11 10 9 8 7 6 4 3 2 2 1 1 1 1 1 1 2 2 2 2 3 3 3 3 3 3 2
9 7 6 7 7 5 9 11 10 9 9 10 10 11 12 11 11 10 10 9 8 7 5 4 3 3 2 1 1 0 1 1 1 1 1 1 1 2 2 2 2 1 1 1
10 8 7 7 7 8 10 9 10 9 9 10 10 11 11 11 10 9 9 8 8 7 6 5 4 3 2 2 1 1 1 1 1 1 1 1 1 1 1 1 1 0 0 0
9 9 7 8 7 8 10 10 10 10 9 11 10 10 11 10 8 8 8 8 7 7 6 5 4 3 3 2 2 2 1 1 1 1 1 1 1 1 1 1 0 0 0 -0
7 7 7 7 7 8 10 9 9 8 9 10 11 10 10 10 9 9 8 7 7 6 6 5 4 4 3 3 3 2 2 1 1 1 1 1 1 1 1 0 0 -0 -0 -0
7 7 7 7 7 7 9 9 9 9 10 10 10 10 10 9 9 8 7 7 7 6 6 5 5 4 4 3 3 3 2 2 1 1 1 1 1 1 0 0 0 -0 -1 -1
8 8 8 8 8 10 10 10 10 10 9 9 9 9 9 8 8 7 7 6 6 6 6 5 5 4 4 3 3 3 2 2 1 1 1 1 1 1 0 0 -0 -0 -1 -1
9 10 9 9 10 10 10 10 9 9 9 8 8 8 8 8 8 7 7 6 6 6 6 5 5 4 4 4 3 3 2 2 2 1 1 1 1 1 0 0 -0 -0 -1 -1
9 9 8 8 9 10 10 10 9 8 8 8 8 8 8 8 7 7 7 6 6 6 6 5 5 5 4 4 4 3 3 2 2 1 1 1 1 1 0 0 -0 -1 -1 -2
8 8 8 8 10 9 10 9 9 8 7 7 8 8 7 7 7 7 6 6 6 6 6 5 5 5 4 4 4 3 3 2 2 2 1 1 1 0 0 -0 -0 -1 -1 -2
Wind_Speed
10 10 15 19 19 12 14 14 14 13 9 11 10 10 10 7 8 8 9 8 7 5 2 3 4 6 6 5 4 5 5 4 2 3 4 5 7 7 7 7 11 13 13 12
9 13 16 14 15 14 9 14 13 7 8 7 7 10 10 9 8 7 6 6 4 2 4 5 5 5 5 5 5 5 5 5 5 3 3 3 3 5 7 7 9 14 14 13
10 10 15 15 14 14 9 8 10 9 6 1 3 7 13 8 5 2 2 3 3 3 4 5 5 6 6 6 6 6 6 6 6 5 4 3 2 2 3 5 7 10 13 14
5 6 13 13 13 10 8 3 4 11 8 5 8 5 9 10 7 6 5 4 3 4 5 6 6 6 5 5 4 5 5 5 5 5 4 4 4 5 6 6 6 8 11 12
3 4 11 13 10 8 4 4 6 7 5 3 7 5 4 10 8 8 7 6 7 7 7 6 5 4 5 4 3 4 5 4 3 3 4 4 5 5 5 5 7 7 8 10
4 4 2 2 4 5 8 8 7 2 2 4 8 7 5 8 11 11 9 8 8 7 6 6 5 5 5 4 4 5 6 5 4 4 4 4 6 6 7 7 7 6 5 6
4 4 4 3 7 5 7 8 4 4 3 6 7 6 4 7 12 12 11 9 8 6 5 5 6 5 5 6 6 6 7 7 7 7 6 6 5 5 6 7 6 6 5 4
6 5 1 2 2 6 7 5 2 5 6 4 3 6 1 9 10 10 9 8 5 4 6 5 5 4 5 6 7 7 8 7 8 8 8 8 8 5 4 5 5 6 5 5
5 4 3 2 2 2 5 4 2 3 3 4 6 5 5 7 8 8 8 7 6 5 6 4 5 5 6 6 7 7 8 8 8 9 9 8 8 7 7 7 6 5 5 5
6 6 4 3 3 3 2 1 3 2 2 3 7 9 9 12 11 10 9 8 6 6 5 5 5 5 5 6 6 8 8 8 8 9 8 8 8 8 7 6 7 7 6 6
7 6 6 5 6 7 4 2 4 4 3 2 2 1 3 15 12 10 8 7 5 6 5 4 4 5 6 7 7 8 8 8 8 9 8 8 8 8 8 6 7 7 6 6
4 5 4 3 2 1 4 5 6 3 4 3 2 1 5 11 10 8 6 5 6 6 5 4 4 5 6 7 7 7 7 7 8 8 8 8 9 9 9 8 8 8 8 8
4 6 6 3 2 4 4 6 6 1 1 2 2 3 5 9 8 7 5 5 6 7 5 4 4 5 6 6 6 7 7 7 7 7 7 8 9 9 9 9 9 9 8 8
1 3 2 3 3 7 6 8 8 5 4 4 4 5 7 8 7 7 6 6 6 7 6 5 4 5 5 5 5 6 6 7 7 7 7 8 8 9 9 9 9 10 10 10
1 2 2 3 4 4 5 8 11 9 8 5 3 5 9 9 7 6 6 7 6 6 6 5 4 4 5 5 5 5 6 6 7 7 7 8 8 8 8 8 9 10 10 10
2 3 3 1 2 2 4 7 10 11 12 9 6 4 1 5 5 4 5 5 5 6 6 5 5 5 4 4 4 5 5 5 6 7 7 7 7 8 8 8 9 10 10 10
3 4 3 2 5 2 7 13 14 11 8 10 11 7 4 5 4 4 4 4 6 7 6 5 6 5 4 4 3 4 4 5 6 6 7 7 7 8 8 9 10 10 10 10
5 5 3 1 1 6 5 2 8 12 11 10 7 6 5 3 3 3 4 6 7 8 7 6 6 5 4 4 3 4 5 6 6 6 7 7 7 8 8 9 9 9 9 9
4 4 3 3 4 7 5 5 4 6 7 12 11 6 2 2 1 2 5 6 7 8 7 7 6 6 5 4 4 5 6 6 6 6 7 7 7 7 8 9 8 8 8 9
2 2 2 3 3 4 2 5 4 3 4 7 10 8 6 4 2 4 7 8 8 8 7 7 6 6 5 4 5 6 6 6 6 5 6 6 6 7 7 7 7 7 7 8
4 4 5 4 4 5 3 6 5 3 1 6 7 7 6 4 3 7 9 8 8 8 8 7 7 6 5 5 5 6 5 4 4 5 5 6 6 6 6 6 5 5 6 6
8 6 6 5 6 6 6 6 3 2 5 7 7 6 5 5 7 7 8 9 9 8 8 7 6 6 5 5 6 6 5 4 4 4 5 5 4 4 4 5 4 4 4 4
8 7 4 6 5 2 6 4 5 5 5 4 4 5 4 4 5 7 8 8 9 9 8 7 7 7 6 6 7 7 6 6 5 5 5 5 4 3 3 3 3 2 2 2
6 6 4 3 4 6 7 5 5 5 5 4 4 3 2 3 4 6 8 8 9 9 9 8 8 8 7 7 7 7 7 7 6 6 5 4 4 4 4 4 4 3 3 3
3 5 5 5 4 2 6 7 7 5 5 4 3 1 2 3 4 5 7 9 9 9 9 9 8 8 8 8 7 8 7 7 6 6 5 4 4 4 5 5 4 5 4 4
4 4 5 5 4 5 4 6 7 6 5 4 1 1 2 3 4 4 6 7 8 9 9 9 9 8 9 9 8 8 7 7 7 6 5 4 3 4 4 4 4 5 4 5
Wind_Direction
178 181 189 191 197 201 188 198 206 206 166 187 211 224 238 203 190 225 246 254 250 233 185 88 44 19 3 356 347 335 329 310 247 213 215 211 208 208 209 212 220 225 229 226
167 199 196 193 200 226 242 198 207 160 133 170 216 232 233 226 211 218 245 269 295 2 48 61 59 43 21 8 1 344 326 316 311 285 249 232 223 216 213 210 214 220 222 223
174 184 192 197 195 210 240 212 191 140 114 197 267 252 228 215 209 219 280 316 342 23 49 62 67 70 58 39 15 355 344 331 321 321 324 314 295 275 242 225 218 215 216 217
188 177 187 192 191 191 210 238 166 129 136 200 196 248 203 181 179 188 198 201 166 117 93 79 68 68 75 62 23 349 330 316 312 314 306 291 270 257 251 245 234 221 213 213
149 183 181 183 183 188 152 92 90 122 193 232 190 234 203 148 175 179 171 145 120 109 105 105 96 82 82 70 28 341 324 316 317 314 297 285 282 276 278 276 264 246 224 213
61 26 30 167 136 123 117 98 85 70 235 245 213 213 220 185 178 157 145 136 136 136 139 124 101 78 73 53 22 348 340 343 343 330 309 285 277 286 297 295 287 279 262 231
88 48 15 28 103 123 152 136 138 165 202 235 191 202 267 149 145 146 148 148 145 153 129 89 66 46 44 33 11 355 356 351 351 347 336 324 304 290 288 291 291 293 287 269
137 138 82 23 138 164 187 192 177 185 194 183 155 215 161 99 110 123 129 133 154 147 104 89 73 48 34 25 14 3 357 350 353 351 342 334 331 320 302 301 305 302 299 296
132 115 94 71 25 127 170 213 348 326 277 152 197 180 106 120 126 137 151 171 172 130 106 87 65 49 34 25 16 4 359 358 357 352 342 335 336 331 325 321 314 306 303 305
117 119 134 119 89 17 326 178 136 149 211 232 188 181 185 173 172 171 176 176 151 127 100 73 56 47 40 32 20 13 9 360 353 349 341 337 330 328 326 323 318 318 321 329
114 118 136 158 187 173 169 173 209 221 267 264 216 173 155 164 165 167 164 143 125 104 82 62 51 46 46 35 24 16 6 359 354 346 340 339 340 340 339 339 342 341 342 349
104 118 129 140 116 293 217 198 193 196 235 230 267 21 91 133 133 132 130 134 127 112 95 79 67 55 51 34 19 10 3 1 350 342 345 353 357 356 358 1 359 3 11 14
119 122 127 143 198 214 235 227 219 165 105 223 221 146 101 110 122 143 157 147 129 122 106 77 63 62 53 34 19 9 3 357 346 348 1 8 8 6 7 7 9 16 24 29
14 154 147 163 156 163 191 200 195 164 185 212 225 149 169 159 169 164 148 129 121 122 112 85 60 63 59 40 20 11 2 355 353 6 19 18 14 13 12 17 25 28 33 39
328 94 78 30 52 117 189 195 193 196 209 216 232 174 174 175 165 142 133 131 134 130 116 102 82 66 59 43 23 16 10 2 7 22 28 24 21 23 25 31 38 39 40 45
149 119 110 252 191 191 239 228 210 208 221 241 270 290 89 115 119 130 129 135 146 134 122 113 102 83 65 48 29 23 20 17 27 34 34 33 34 36 37 42 48 50 48 48
149 130 152 201 157 231 248 223 211 203 197 207 225 226 175 153 152 135 132 150 144 129 124 116 104 93 82 69 48 36 33 37 43 43 42 43 46 48 47 53 58 59 57 58
158 149 160 159 170 240 234 81 189 207 214 208 211 198 178 150 120 128 145 149 138 135 133 124 115 114 107 93 79 68 59 57 55 52 48 47 52 57 56 59 61 61 62 63
180 179 200 203 247 265 202 166 165 183 220 208 209 210 192 100 50 155 119 116 127 129 125 122 125 130 121 106 94 87 76 69 64 59 56 53 57 64 64 64 60 60 69 68
231 224 239 230 256 269 92 131 144 164 240 185 181 185 185 162 210 186 138 121 122 124 126 132 137 132 124 114 104 94 83 79 70 65 65 64 66 72 74 73 70 70 75 78
192 212 224 242 254 271 128 137 138 183 168 114 132 145 152 164 166 147 143 140 140 138 138 140 141 135 131 129 118 109 102 92 87 85 83 80 79 82 85 84 82 85 87 88
188 196 201 203 227 245 139 145 178 109 83 83 97 107 114 113 120 142 153 154 153 151 153 153 147 143 145 148 140 133 137 142 129 115 106 103 103 106 108 106 106 109 110 104
191 205 198 201 213 140 158 149 105 91 96 89 93 100 116 142 165 170 168 167 168 165 166 164 159 158 167 173 163 157 165 162 151 134 125 125 123 117 120 120 118 106 95 94
201 210 239 256 221 174 172 159 126 111 109 103 101 111 148 189 189 181 178 178 177 175 173 170 169 172 180 183 175 162 162 165 155 145 142 138 127 112 82 60 59 65 49 56
222 180 212 244 255 196 185 178 159 140 129 122 115 138 207 231 223 199 190 187 184 181 176 175 181 183 180 174 167 156 162 164 153 145 140 130 123 118 99 76 63 81 65 70
229 210 204 224 221 196 187 158 136 135 129 107 82 283 247 233 244 226 202 190 183 181 176 179 185 184 174 167 164 163 166 165 154 152 156 155 150 138 136 131 101 82 107 81
Height
1467 1472 1472 1471 1473 1473 1477 1483 1485 1485 1483 1490 1494 1496 1494 1493 1495 1498 1499 1500 1501 1502 1504 1505 1506 1508 1509 1511 1512 1514 1516 1517 1519 1520 1521 1521 1521 1522 1522 1523 1525 1526 1526 1528
1469 1469 1467 1469 1473 1473 1472 1478 1481 1481 1485 1489 1493 1494 1491 1490 1492 1494 1496 1497 1498 1499 1501 1502 1503 1505 1506 1507 1508 1509 1511 1512 1514 1515 1516 1516 1517 1517 1517 1518 1519 1519 1520 1521
1462 1462 1464 1467 1470 1473 1473 1474 1476 1482 1489 1491 1494 1495 1490 1487 1489 1491 1493 1495 1496 1498 1499 1501 1502 1503 1504 1504 1505 1505 1506 1507 1508 1509 1510 1511 1511 1512 1513 1513 1513 1513 1514 1514
1462 1460 1463 1466 1469 1471 1476 1471 1472 1481 1493 1498 1498 1502 1483 1484 1488 1490 1492 1494 1496 1498 1499 1500 1501 1502 1502 1502 1502 1502 1503 1503 1504 1504 1505 1505 1506 1506 1507 1508 1508 1508 1509 1509
1465 1463 1463 1467 1468 1470 1474 1474 1477 1483 1492 1493 1494 1498 1484 1482 1488 1490 1491 1493 1495 1497 1499 1500 1501 1502 1501 1501 1500 1500 1500 1500 1500 1500 1500 1500 1500 1501 1501 1502 1503 1503 1503 1503
1469 1469 1469 1469 1470 1472 1475 1480 1485 1489 1493 1502 1492 1494 1486 1482 1482 1486 1490 1493 1495 1497 1499 1500 1500 1500 1500 1499 1498 1498 1498 1497 1497 1497 1496 1496 1496 1495 1496 1496 1496 1497 1498 1498
1473 1475 1475 1474 1477 1478 1478 1489 1501 1505 1507 1501 1482 1486 1482 1473 1474 1481 1487 1491 1494 1496 1497 1498 1498 1498 1498 1497 1496 1495 1495 1494 1493 1493 1492 1492 1492 1491 1491 1491 1491 1491 1491 1492
1472 1477 1479 1479 1478 1479 1480 1484 1493 1498 1500 1493 1486 1489 1480 1474 1476 1481 1486 1490 1493 1495 1495 1496 1496 1496 1495 1494 1493 1492 1491 1490 1489 1488 1488 1487 1487 1486 1486 1486 1485 1485 1485 1485
1468 1478 1481 1481 1480 1479 1482 1485 1484 1489 1481 1487 1489 1481 1484 1478 1480 1483 1486 1489 1491 1493 1494 1494 1494 1493 1492 1491 1490 1488 1487 1486 1485 1484 1483 1483 1482 1482 1481 1480 1480 1479 1479 1479
1463 1476 1481 1482 1482 1484 1483 1481 1489 1494 1489 1484 1476 1477 1482 1481 1481 1482 1485 1487 1489 1490 1492 1492 1492 1491 1490 1488 1487 1485 1484 1483 1482 1481 1480 1479 1478 1477 1476 1475 1474 1474 1473 1473
1460 1473 1482 1483 1483 1483 1485 1485 1485 1485 1484 1489 1481 1478 1460 1470 1475 1479 1482 1485 1487 1488 1490 1490 1490 1489 1487 1485 1484 1482 1481 1480 1479 1477 1476 1475 1474 1473 1472 1471 1470 1469 1468 1468
1459 1469 1478 1480 1480 1480 1479 1479 1481 1486 1487 1483 1487 1484 1464 1468 1473 1477 1481 1484 1485 1487 1488 1488 1487 1486 1484 1483 1481 1479 1478 1477 1476 1474 1473 1472 1470 1469 1468 1467 1466 1465 1464 1464
1460 1471 1480 1485 1487 1483 1480 1477 1476 1480 1484 1484 1485 1483 1469 1471 1474 1477 1480 1482 1484 1485 1485 1486 1485 1483 1482 1480 1478 1477 1475 1474 1473 1472 1470 1469 1467 1466 1465 1464 1463 1462 1461 1461
1459 1465 1471 1473 1470 1474 1477 1475 1476 1482 1489 1483 1478 1476 1473 1473 1475 1476 1478 1480 1482 1483 1483 1483 1482 1481 1479 1478 1476 1475 1473 1472 1471 1469 1468 1466 1465 1464 1463 1462 1461 1460 1459 1459
1461 1467 1470 1468 1466 1468 1470 1471 1474 1479 1478 1478 1470 1468 1469 1470 1472 1474 1476 1478 1480 1481 1481 1480 1480 1479 1477 1476 1474 1473 1471 1470 1469 1468 1466 1465 1464 1462 1461 1460 1459 1459 1458 1457
1462 1468 1472 1474 1469 1470 1471 1469 1469 1472 1473 1472 1470 1469 1465 1467 1470 1472 1474 1476 1477 1478 1478 1478 1477 1477 1476 1474 1473 1471 1470 1469 1468 1466 1465 1464 1463 1462 1461 1460 1459 1458 1457 1457
1463 1469 1475 1471 1468 1470 1473 1463 1463 1464 1463 1467 1470 1468 1465 1467 1469 1471 1472 1473 1474 1475 1475 1475 1475 1475 1474 1473 1472 1470 1469 1468 1467 1466 1465 1463 1462 1461 1460 1460 1459 1459 1458 1457
1463 1468 1474 1471 1473 1479 1457 1449 1451 1456 1458 1460 1460 1461 1462 1465 1467 1468 1469 1470 1471 1472 1473 1473 1473 1473 1473 1472 1471 1470 1469 1468 1467 1466 1465 1464 1463 1462 1461 1461 1460 1460 1460 1459
1460 1464 1467 1469 1468 1460 1450 1450 1450 1453 1454 1453 1456 1458 1460 1463 1465 1466 1467 1468 1469 1470 1471 1471 1472 1472 1472 1471 1471 1470 1469 1469 1468 1467 1466 1465 1465 1464 1463 1463 1462 1462 1462 1462
1460 1462 1466 1465 1467 1459 1450 1448 1448 1452 1453 1446 1450 1455 1459 1461 1466 1465 1465 1466 1467 1468 1469 1470 1471 1471 1471 1471 1471 1471 1470 1470 1470 1469 1468 1468 1467 1466 1466 1465 1465 1465 1465 1464
1463 1464 1466 1465 1464 1456 1448 1448 1450 1457 1451 1447 1449 1453 1456 1459 1462 1463 1463 1465 1466 1467 1468 1469 1470 1471 1471 1471 1472 1472 1472 1471 1471 1471 1471 1470 1470 1469 1468 1468 1467 1467 1467 1466
1459 1460 1460 1461 1463 1459 1448 1449 1451 1451 1449 1449 1451 1454 1456 1458 1459 1461 1462 1463 1464 1465 1466 1468 1469 1470 1471 1472 1472 1472 1472 1473 1472 1472 1472 1472 1471 1471 1470 1470 1469 1469 1468 1468
1450 1451 1450 1452 1453 1446 1446 1447 1448 1449 1450 1451 1453 1454 1456 1457 1458 1459 1460 1461 1462 1463 1464 1466 1467 1469 1470 1471 1472 1472 1473 1473 1473 1473 1473 1473 1472 1472 1472 1471 1471 1470 1470 1469
1443 1443 1445 1445 1443 1443 1445 1446 1447 1449 1450 1451 1452 1453 1454 1455 1456 1457 1457 1458 1459 1460 1462 1464 1465 1467 1468 1470 1470 1471 1472 1472 1472 1472 1473 1473 1473 1473 1472 1472 1471 1471 1470 1469
1439 1440 1442 1443 1441 1441 1442 1444 1445 1447 1448 1450 1450 1451 1452 1453 1453 1454 1454 1455 1456 1457 1459 1461 1462 1464 1466 1467 1468 1469 1470 1471 1471 1472 1472 1472 1472 1472 1472 1472 1471 1471 1470 1469
1438 1439 1441 1441 1437 1438 1439 1441 1443 1445 1446 1447 1448 1449 1450 1450 1450 1450 1451 1451 1452 1453 1455 1457 1459 1461 1463 1464 1466 1467 1468 1469 1469 1470 1470 1471 1471 1471 1471 1471 1470 1470 1469 1467